OK1KZE-6 Weather Reports


Display with metric or nautical units.
time (UTC)temp
F
wind
direction
speed
MPH
gust
MPH
rain 1hr
in
rain 24hr
in
rain mn
in
humidity
%
barometer
mb
20260902022007 57 242 10.0 11.0 0.00 0.00 0.00 75 1023.0
20260902021507 57 238 12.0 12.0 0.00 0.00 0.00 75 1022.9
20260902021007 57 244 11.0 12.0 0.00 0.00 0.00 76 1022.8
20260902020507 58 247 12.0 12.0 0.00 0.00 0.00 74 1022.8
20260902020007 58 239 10.0 11.0 0.00 0.00 0.00 73 1022.8
20260902015508 58 246 12.0 13.0 0.00 0.00 0.00 73 1022.8
20260902015007 57 249 10.0 11.0 0.00 0.00 0.00 74 1022.6
20260902014508 58 248 11.0 12.0 0.00 0.00 0.00 72 1022.8
20260902014007 59 256 10.0 10.0 0.00 0.00 0.00 71 1022.8
20260902013507 59 243 10.0 13.0 0.00 0.00 0.00 70 1022.7
20260902013008 59 233 11.0 13.0 0.00 0.00 0.00 70 1022.9
20260902012507 59 234 12.0 15.0 0.00 0.00 0.00 70 1022.6
20260902012008 59 233 11.0 12.0 0.00 0.00 0.00 70 1022.6
20260902011508 59 222 10.0 13.0 0.00 0.00 0.00 69 1022.4
20260902011007 59 220 10.0 12.0 0.00 0.00 0.00 70 1022.8
20260902010508 59 230 11.0 12.0 0.00 0.00 0.00 69 1022.5
20260902010008 59 230 11.0 12.0 0.00 0.00 0.00 69 1022.7
20260902005507 60 231 12.0 14.0 0.00 0.00 0.00 68 1022.6
20260902005008 60 230 12.0 13.0 0.00 0.00 0.00 68 1022.6
20260902004507 59 239 10.0 13.0 0.00 0.00 0.00 69 1022.7
20260902004008 59 228 12.0 13.0 0.00 0.00 0.00 69 1022.6
20260902003507 59 239 13.0 13.0 0.00 0.00 0.00 70 1022.7
20260902003008 60 246 12.0 13.0 0.00 0.00 0.00 68 1022.7
20260902002507 60 244 11.0 12.0 0.00 0.00 0.00 68 1022.7
20260902002007 60 241 12.0 13.0 0.00 0.00 0.00 68 1022.6
20260902001508 61 242 12.0 13.0 0.00 0.00 0.00 65 1022.5
20260902001007 61 252 11.0 12.0 0.00 0.00 0.00 66 1022.7
20260902000508 60 249 12.0 13.0 0.00 0.00 0.00 68 1022.6
20260902000008 60 248 11.0 14.0 0.00 0.00 0.00 67 1022.7
20260901235508 60 249 11.0 13.0 0.00 0.00 0.00 68 1022.6
20260901235008 60 251 13.0 13.0 0.00 0.00 0.00 67 1022.8
20260901234507 60 247 10.0 11.0 0.00 0.00 0.00 66 1022.6
20260901234009 61 247 10.0 11.0 0.00 0.00 0.00 66 1023.0
20260901233508 61 244 9.0 10.0 0.00 0.00 0.00 65 1022.8
20260901233007 61 227 8.0 10.0 0.00 0.00 0.00 64 1022.9
20260901232508 61 241 10.0 11.0 0.00 0.00 0.00 63 1022.6
20260901232007 61 237 10.0 11.0 0.00 0.00 0.00 65 1022.8
20260901231507 62 241 11.0 11.0 0.00 0.00 0.00 63 1022.8
20260901231008 61 238 11.0 12.0 0.00 0.00 0.00 64 1022.9
20260901230507 62 244 11.0 12.0 0.00 0.00 0.00 64 1022.9
20260901230008 62 231 11.0 12.0 0.00 0.00 0.00 63 1022.9
20260901225509 62 235 10.0 12.0 0.00 0.00 0.00 63 1022.9
20260901225008 63 247 10.0 11.0 0.00 0.00 0.00 61 1022.9
20260901224507 63 246 11.0 12.0 0.00 0.00 0.00 60 1023.0
20260901224008 63 243 11.0 11.0 0.00 0.00 0.00 61 1023.0
20260901223508 63 244 9.0 10.0 0.00 0.00 0.00 60 1022.9
20260901223008 63 244 9.0 10.0 0.00 0.00 0.00 61 1023.1
20260901222507 63 243 9.0 10.0 0.00 0.00 0.00 60 1023.1
20260901222008 63 244 10.0 11.0 0.00 0.00 0.00 59 1023.1
20260901221507 64 243 12.0 12.0 0.00 0.00 0.00 59 1023.2
20260901221007 64 242 12.0 12.0 0.00 0.00 0.00 59 1023.1
20260901220508 64 241 8.0 12.0 0.00 0.00 0.00 59 1023.0
20260901220008 63 245 10.0 10.0 0.00 0.00 0.00 59 1023.0
20260901215508 63 232 10.0 11.0 0.00 0.00 0.00 60 1023.1
20260901215008 63 233 10.0 11.0 0.00 0.00 0.00 60 1023.0
20260901214508 63 237 8.0 9.0 0.00 0.00 0.00 60 1023.0
20260901214008 64 234 10.0 12.0 0.00 0.00 0.00 59 1023.1
20260901213507 64 233 10.0 11.0 0.00 0.00 0.00 59 1022.9
20260901213008 64 232 10.0 11.0 0.00 0.00 0.00 59 1023.0
20260901212507 64 233 9.0 10.0 0.00 0.00 0.00 59 1022.9
20260901212007 64 233 9.0 11.0 0.00 0.00 0.00 59 1022.9
20260901211508 64 234 7.0 9.0 0.00 0.00 0.00 59 1023.0
20260901211007 64 230 9.0 9.0 0.00 0.00 0.00 58 1022.9
20260901210508 64 227 7.0 9.0 0.00 0.00 0.00 58 1023.0
20260901210007 64 221 8.0 9.0 0.00 0.00 0.00 58 1022.9
20260901205507 64 230 9.0 10.0 0.00 0.00 0.00 58 1022.9
20260901205008 64 236 12.0 12.0 0.00 0.00 0.00 59 1022.7
20260901204507 64 243 7.0 9.0 0.00 0.00 0.00 60 1022.9
20260901204008 64 242 10.0 10.0 0.00 0.00 0.00 60 1022.6
20260901203508 64 250 9.0 10.0 0.00 0.00 0.00 59 1022.8
20260901203009 64 257 6.0 8.0 0.00 0.00 0.00 59 1022.8
20260901202507 65 254 10.0 11.0 0.00 0.00 0.00 57 1022.6
20260901202008 65 249 9.0 10.0 0.00 0.00 0.00 58 1022.9
20260901201507 65 253 12.0 13.0 0.00 0.00 0.00 58 1022.8
20260901201008 64 258 12.0 13.0 0.00 0.00 0.00 59 1023.0
20260901200508 65 255 10.0 11.0 0.00 0.00 0.00 58 1022.8
20260901200008 65 253 12.0 13.0 0.00 0.00 0.00 58 1022.7
20260901195508 65 254 10.0 11.0 0.00 0.00 0.00 58 1022.8
20260901195007 65 256 10.0 12.0 0.00 0.00 0.00 57 1022.7
20260901194508 65 254 9.0 11.0 0.00 0.00 0.00 59 1022.7
20260901194007 65 257 10.0 11.0 0.00 0.00 0.00 59 1022.9
20260901193507 65 258 9.0 10.0 0.00 0.00 0.00 58 1022.8
20260901193007 66 256 8.0 12.0 0.00 0.00 0.00 58 1022.6
20260901192508 66 252 10.0 11.0 0.00 0.00 0.00 57 1022.7
20260901192007 66 256 10.0 10.0 0.00 0.00 0.00 58 1022.8
20260901191507 66 259 10.0 10.0 0.00 0.00 0.00 56 1022.5
20260901191007 66 253 9.0 10.0 0.00 0.00 0.00 56 1022.6
20260901190507 67 262 8.0 9.0 0.00 0.00 0.00 55 1022.7
20260901190008 67 255 8.0 8.0 0.00 0.00 0.00 55 1022.6
20260901185508 67 258 7.0 9.0 0.00 0.00 0.00 54 1022.6
20260901185007 67 243 7.0 8.0 0.00 0.00 0.00 54 1022.5
20260901184508 68 250 7.0 8.0 0.00 0.00 0.00 53 1022.6
20260901184008 68 248 9.0 11.0 0.00 0.00 0.00 53 1022.5
20260901183508 68 250 9.0 10.0 0.00 0.00 0.00 51 1022.3
20260901183007 68 249 6.0 8.0 0.00 0.00 0.00 51 1022.2
20260901182507 68 238 7.0 8.0 0.00 0.00 0.00 50 1022.3
20260901182007 68 243 8.0 9.0 0.00 0.00 0.00 50 1022.2
20260901181508 69 240 9.0 9.0 0.00 0.00 0.00 49 1022.2
20260901181008 69 233 8.0 8.0 0.00 0.00 0.00 49 1022.2
20260901180508 69 244 8.0 8.0 0.00 0.00 0.00 49 1022.1
20260901180007 69 241 7.0 8.0 0.00 0.00 0.00 49 1022.0
20260901175508 69 227 8.0 8.0 0.00 0.00 0.00 49 1022.1
20260901175009 69 238 8.0 8.0 0.00 0.00 0.00 49 1022.2
20260901174507 69 242 7.0 9.0 0.00 0.00 0.00 50 1022.1
20260901174008 69 246 8.0 8.0 0.00 0.00 0.00 50 1022.3
20260901173508 69 239 6.0 8.0 0.00 0.00 0.00 50 1022.2
20260901173008 69 237 7.0 7.0 0.00 0.00 0.00 50 1022.1
20260901172507 69 228 8.0 8.0 0.00 0.00 0.00 50 1022.1
20260901172007 69 227 7.0 8.0 0.00 0.00 0.00 50 1022.3
20260901171507 69 232 7.0 9.0 0.00 0.00 0.00 51 1022.0
20260901171007 69 232 4.0 6.0 0.00 0.00 0.00 51 1022.1
20260901170508 69 222 4.0 5.0 0.00 0.00 0.00 51 1022.3
20260901170007 70 231 4.0 4.0 0.00 0.00 0.00 50 1022.1
20260901165507 70 224 4.0 4.0 0.00 0.00 0.00 50 1022.3
20260901165007 70 225 4.0 5.0 0.00 0.00 0.00 49 1022.2
20260901164507 69 248 4.0 6.0 0.00 0.00 0.00 51 1022.4
20260901164008 69 228 6.0 6.0 0.00 0.00 0.00 51 1022.4
20260901163507 30 0 0.0 0.0 0.00 0.00 0.00 100 1022.4
20260901163007 69 245 4.0 6.0 0.00 0.00 0.00 50 1022.4
20260901162507 69 245 4.0 6.0 0.00 0.00 0.00 50 1022.1
20260901162007 69 232 5.0 6.0 0.00 0.00 0.00 51 1022.2
20260901161508 30 0 0.0 0.0 0.00 0.00 0.00 100 1022.3
20260901161007 71 210 5.0 6.0 0.00 0.00 0.00 49 1022.5
20260901160508 71 210 5.0 6.0 0.00 0.00 0.00 49 1022.4
20260901160007 71 223 4.0 5.0 0.00 0.00 0.00 49 1022.2
20260901155508 71 193 3.0 4.0 0.00 0.00 0.00 49 1022.3
20260901155007 71 209 6.0 6.0 0.00 0.00 0.00 48 1022.4
20260901154507 71 280 7.0 8.0 0.00 0.00 0.00 48 1022.6
20260901154008 71 285 9.0 10.0 0.00 0.00 0.00 48 1022.5
20260901153507 72 244 4.0 4.0 0.00 0.00 0.00 51 1022.4
20260901153008 71 210 4.0 7.0 0.00 0.00 0.00 49 1022.5
20260901152508 71 250 6.0 6.0 0.00 0.00 0.00 48 1022.6
20260901152007 70 229 5.0 6.0 0.00 0.00 0.00 49 1022.6
20260901151507 70 283 5.0 5.0 0.00 0.00 0.00 50 1022.5
20260901151009 71 249 9.0 9.0 0.00 0.00 0.00 49 1022.7
20260901150507 70 269 3.0 4.0 0.00 0.00 0.00 49 1022.4
20260901150008 70 240 4.0 7.0 0.00 0.00 0.00 49 1022.5
20260901145507 71 211 3.0 3.0 0.00 0.00 0.00 49 1022.6
20260901145007 70 252 6.0 8.0 0.00 0.00 0.00 49 1022.5
20260901144507 72 281 7.0 8.0 0.00 0.00 0.00 48 1022.6
20260901144007 72 276 2.0 3.0 0.00 0.00 0.00 48 1022.6
20260901143508 71 230 3.0 4.0 0.00 0.00 0.00 50 1022.6
20260901143008 70 286 9.0 9.0 0.00 0.00 0.00 49 1022.8
20260901142507 71 289 8.0 10.0 0.00 0.00 0.00 48 1022.6
20260901142007 71 313 3.0 4.0 0.00 0.00 0.00 48 1022.7
20260901141507 70 282 5.0 5.0 0.00 0.00 0.00 52 1022.5
20260901141008 69 277 8.0 8.0 0.00 0.00 0.00 52 1022.7
20260901140508 69 259 3.0 3.0 0.00 0.00 0.00 53 1022.8
20260901140008 69 106 1.0 1.0 0.00 0.00 0.00 50 1022.9
20260901135507 68 289 6.0 6.0 0.00 0.00 0.00 54 1022.8
20260901135007 68 289 6.0 8.0 0.00 0.00 0.00 54 1023.0
20260901134507 68 288 9.0 12.0 0.00 0.00 0.00 54 1023.0
20260901134007 68 299 10.0 11.0 0.00 0.00 0.00 53 1023.0
20260901133507 68 307 3.0 5.0 0.00 0.00 0.00 53 1022.8
20260901133007 68 274 7.0 9.0 0.00 0.00 0.00 54 1022.8
20260901132508 68 284 15.0 16.0 0.00 0.00 0.00 52 1022.9
20260901132007 69 290 9.0 10.0 0.00 0.00 0.00 51 1023.1
20260901131508 69 304 8.0 10.0 0.00 0.00 0.00 53 1023.0
20260901131007 68 272 10.0 11.0 0.00 0.00 0.00 51 1023.0
20260901130508 69 260 16.0 18.0 0.00 0.00 0.00 51 1023.2
20260901130008 68 296 8.0 11.0 0.00 0.00 0.00 54 1023.2
20260901125508 69 244 10.0 11.0 0.00 0.00 0.00 53 1023.2
20260901125007 69 285 5.0 10.0 0.00 0.00 0.00 53 1023.3
20260901124507 69 285 15.0 16.0 0.00 0.00 0.00 52 1023.0
20260901124007 70 281 11.0 11.0 0.00 0.00 0.00 54 1023.1
20260901123509 68 263 13.0 17.0 0.00 0.00 0.00 55 1023.2
20260901123009 68 288 12.0 13.0 0.00 0.00 0.00 55 1023.1
20260901122507 68 289 13.0 16.0 0.00 0.00 0.00 54 1023.3
20260901122008 30 0 0.0 0.0 0.00 0.00 0.00 100 1023.1
20260901121507 68 260 7.0 8.0 0.00 0.00 0.00 57 1023.1
20260901121007 68 260 7.0 8.0 0.00 0.00 0.00 57 1023.4
20260901120507 68 283 14.0 16.0 0.00 0.00 0.00 56 1023.3
20260901120007 67 253 10.0 11.0 0.00 0.00 0.00 56 1023.2
20260901115508 67 290 11.0 12.0 0.00 0.00 0.00 57 1023.2
20260901115007 67 290 11.0 12.0 0.00 0.00 0.00 57 1023.4
20260901114507 67 288 8.0 12.0 0.00 0.00 0.00 58 1023.5
20260901114008 67 258 9.0 12.0 0.00 0.00 0.00 59 1023.4
20260901113507 67 245 9.0 10.0 0.00 0.00 0.00 59 1023.3
20260901113007 66 264 11.0 13.0 0.00 0.00 0.00 60 1023.3
20260901112507 66 264 11.0 13.0 0.00 0.00 0.00 60 1023.4
20260901112007 30 0 0.0 0.0 0.00 0.00 0.00 100 1023.3
20260901111507 66 293 15.0 17.0 0.00 0.00 0.00 60 1023.2
20260901111008 66 293 15.0 17.0 0.00 0.00 0.00 60 1023.2
20260901110508 66 289 13.0 15.0 0.00 0.00 0.00 61 1023.2
20260901110007 66 285 11.0 15.0 0.00 0.00 0.00 61 1023.1
20260901105507 65 265 7.0 12.0 0.00 0.00 0.00 62 1023.1
20260901105008 66 251 9.0 10.0 0.00 0.00 0.00 63 1023.3
20260901104507 65 297 10.0 11.0 0.00 0.00 0.00 62 1023.1
20260901104007 65 276 10.0 10.0 0.00 0.00 0.00 63 1023.3
20260901103508 64 289 15.0 18.0 0.00 0.00 0.00 64 1023.3
20260901103008 65 272 10.0 15.0 0.00 0.00 0.00 66 1023.2
20260901102507 64 281 10.0 12.0 0.00 0.00 0.00 66 1023.3
20260901102007 64 283 11.0 14.0 0.00 0.00 0.00 67 1023.2
20260901101507 64 289 7.0 15.0 0.00 0.00 0.00 66 1023.3
20260901101007 64 256 12.0 15.0 0.00 0.00 0.00 67 1023.3
20260901100508 64 252 18.0 18.0 0.00 0.00 0.00 67 1023.1
20260901100008 64 292 14.0 15.0 0.00 0.00 0.00 67 1023.0
20260901095507 64 261 10.0 11.0 0.00 0.00 0.00 67 1023.1
20260901095007 64 217 12.0 12.0 0.00 0.00 0.00 67 1023.1
20260901094508 64 267 11.0 11.0 0.00 0.00 0.00 65 1023.0
20260901094007 64 262 8.0 12.0 0.00 0.00 0.00 67 1022.8
20260901093507 64 279 11.0 17.0 0.00 0.00 0.00 67 1023.1
20260901093007 63 253 14.0 17.0 0.00 0.00 0.00 66 1023.0
20260901092508 63 251 11.0 11.0 0.00 0.00 0.00 67 1023.0
20260901092007 63 272 13.0 15.0 0.00 0.00 0.00 68 1023.0
20260901091507 63 251 16.0 18.0 0.00 0.00 0.00 67 1023.0
20260901091008 63 302 5.0 11.0 0.00 0.00 0.00 68 1022.9
20260901090508 63 272 13.0 16.0 0.00 0.00 0.00 67 1023.0
20260901090008 64 269 6.0 8.0 0.00 0.00 0.00 69 1023.0
20260901085507 63 254 9.0 10.0 0.00 0.00 0.00 69 1022.8
20260901085007 62 255 7.0 12.0 0.00 0.00 0.00 70 1022.8
20260901084507 63 285 9.0 10.0 0.00 0.00 0.00 70 1022.8
20260901084008 62 264 7.0 9.0 0.00 0.00 0.00 70 1022.8
20260901083509 62 301 12.0 17.0 0.00 0.00 0.00 70 1022.7
20260901083007 62 296 10.0 12.0 0.00 0.00 0.00 69 1022.5
20260901082507 62 274 15.0 18.0 0.00 0.00 0.00 69 1022.6
20260901082007 62 281 7.0 10.0 0.00 0.00 0.00 70 1022.6
20260901081508 62 237 8.0 8.0 0.00 0.00 0.00 71 1022.6
20260901081008 62 289 14.0 15.0 0.00 0.00 0.00 69 1022.3
20260901080508 62 297 17.0 20.0 0.00 0.00 0.00 69 1022.4
20260901080007 62 287 11.0 13.0 0.00 0.00 0.00 70 1022.4
20260901075507 62 262 13.0 13.0 0.00 0.00 0.00 71 1022.3
20260901075008 62 285 8.0 11.0 0.00 0.00 0.00 71 1022.1
20260901074507 62 286 10.0 11.0 0.00 0.00 0.00 71 1022.1
20260901074007 62 273 16.0 18.0 0.00 0.00 0.00 70 1022.0
20260901073508 62 274 8.0 11.0 0.00 0.00 0.00 73 1022.2
20260901073008 61 298 8.0 16.0 0.00 0.00 0.00 73 1022.0
20260901072507 62 281 10.0 12.0 0.00 0.00 0.00 73 1022.0
20260901072007 61 267 13.0 14.0 0.00 0.00 0.00 74 1022.1
20260901071508 61 263 8.0 11.0 0.00 0.00 0.00 76 1022.2
20260901071008 61 281 12.0 13.0 0.00 0.00 0.00 77 1022.1
20260901070508 61 287 10.0 12.0 0.00 0.00 0.00 76 1021.8
20260901070008 61 276 10.0 12.0 0.00 0.00 0.00 79 1022.0
20260901065508 61 285 11.0 11.0 0.00 0.00 0.00 79 1021.9
20260901065008 61 271 10.0 10.0 0.00 0.00 0.00 79 1021.8
20260901064508 60 272 10.0 12.0 0.00 0.00 0.00 80 1022.3
20260901064007 60 291 10.0 13.0 0.00 0.00 0.00 81 1022.0
20260901063507 60 267 12.0 14.0 0.00 0.00 0.00 81 1022.0
20260901063009 60 274 11.0 13.0 0.00 0.00 0.00 82 1021.7
20260901062507 59 263 5.0 6.0 0.00 0.00 0.00 82 1021.8
20260901062007 59 282 10.0 11.0 0.00 0.00 0.00 83 1021.8
20260901061508 59 250 9.0 10.0 0.00 0.00 0.00 83 1021.9
20260901061007 58 253 10.0 12.0 0.00 0.00 0.00 84 1021.9
20260901060507 58 255 10.0 11.0 0.00 0.00 0.00 85 1021.8
20260901060009 58 250 10.0 11.0 0.00 0.00 0.00 85 1021.9
20260901055508 58 245 9.0 10.0 0.00 0.00 0.00 85 1021.7
20260901055008 57 254 10.0 12.0 0.00 0.00 0.00 85 1021.6
20260901054507 58 256 10.0 14.0 0.00 0.00 0.00 85 1021.8
20260901054008 58 291 3.0 4.0 0.00 0.00 0.00 85 1021.5
20260901053507 58 280 5.0 10.0 0.00 0.00 0.00 85 1021.6
20260901053009 58 248 8.0 13.0 0.00 0.00 0.00 84 1021.5
20260901052507 58 233 8.0 14.0 0.00 0.00 0.00 85 1021.3
20260901052007 57 237 6.0 6.0 0.00 0.00 0.00 85 1021.3
20260901051507 57 249 10.0 13.0 0.00 0.00 0.00 85 1021.2
20260901051007 57 236 8.0 10.0 0.00 0.00 0.00 85 1021.2
20260901050507 57 240 13.0 17.0 0.00 0.00 0.00 85 1021.2
20260901050009 57 245 11.0 15.0 0.00 0.00 0.00 85 1021.2
20260901045507 57 230 13.0 16.0 0.00 0.00 0.00 85 1021.1
20260901045010 57 248 16.0 18.0 0.00 0.00 0.00 84 1021.1
20260901044507 58 242 17.0 21.0 0.00 0.00 0.00 84 1021.0
20260901044008 57 240 14.0 18.0 0.00 0.00 0.00 84 1020.9
20260901043507 57 248 15.0 18.0 0.00 0.00 0.00 85 1020.8
20260901043008 57 245 13.0 14.0 0.00 0.00 0.00 84 1021.0
20260901042507 58 249 14.0 17.0 0.00 0.00 0.00 84 1020.9
20260901042008 58 254 12.0 15.0 0.00 0.00 0.00 83 1021.1
20260901041507 58 241 14.0 16.0 0.00 0.00 0.00 83 1021.0
20260901041007 58 233 8.0 15.0 0.00 0.00 0.00 83 1020.9
20260901040508 58 252 14.0 16.0 0.00 0.00 0.00 83 1020.8
20260901040008 58 238 14.0 15.0 0.00 0.00 0.00 83 1020.7
20260901035508 58 251 15.0 18.0 0.00 0.00 0.00 83 1021.0
20260901035007 58 246 13.0 17.0 0.00 0.00 0.00 83 1020.7
20260901034508 58 252 14.0 15.0 0.00 0.00 0.00 83 1020.7
20260901034008 58 239 9.0 13.0 0.00 0.00 0.00 82 1020.9
20260901033507 58 224 7.0 12.0 0.00 0.00 0.00 82 1020.8
20260901033007 58 263 9.0 12.0 0.00 0.00 0.00 82 1020.8
20260901032508 58 261 8.0 13.0 0.00 0.00 0.00 82 1021.0
20260901032007 58 246 8.0 14.0 0.00 0.00 0.00 82 1020.9
20260901031508 58 238 12.0 12.0 0.00 0.00 0.00 82 1020.7
20260901031007 58 231 10.0 11.0 0.00 0.00 0.00 83 1020.8
20260901030508 58 238 11.0 12.0 0.00 0.00 0.00 82 1020.7
20260901030008 58 252 8.0 16.0 0.00 0.00 0.00 82 1020.8
20260901025507 59 253 13.0 14.0 0.00 0.00 0.00 82 1020.9
20260901025008 59 247 16.0 16.0 0.00 0.00 0.00 81 1020.8
20260901024508 59 251 13.0 14.0 0.00 0.00 0.00 81 1020.7
20260901024007 59 256 16.0 18.0 0.00 0.00 0.00 80 1020.6
20260901023508 59 248 14.0 15.0 0.00 0.00 0.00 80 1020.6
20260901023007 59 261 8.0 14.0 0.00 0.00 0.00 80 1020.7
20260901022507 59 236 13.0 14.0 0.00 0.00 0.00 80 1020.7